FW9125 Weather Reports


Display with metric or nautical units.
time (UTC)temp
F
wind
direction
speed
MPH
gust
MPH
rain 1hr
in
rain 24hr
in
rain mn
in
humidity
%
barometer
mb
20260504160343 63 197 1.0 2.0 0.04 0.13 0.09 91 1011.3
20260504151110 64 231 4.0 9.0 0.02 0.09 0.06 89 1011.2
20260504151022 64 230 5.0 9.0 0.02 0.09 0.06 91 1011.4
20260504150110 64 225 5.0 9.0 0.03 0.09 0.06 91 1011.5
20260504141110 65 197 2.0 5.0 0.02 0.06 0.03 91 1011.8
20260504141039 65 269 2.0 5.0 0.01 0.06 0.02 90 1011.9
20260504140819 65 246 3.0 5.0 0.02 0.06 0.02 91 1011.8
20260504130714 65 232 5.0 7.0 0.00 0.05 0.02 88 1011.9
20260504120317 65 214 3.0 8.0 0.01 0.03 0.01 89 1012.2
20260504120313 65 163 5.0 9.0 0.00 0.03 0.00 89 1012.2
20260504120120 65 231 2.0 8.0 0.02 0.05 0.02 89 1012.2
20260504110715 65 239 6.0 11.0 0.00 0.03 0.00 87 1012.3
20260504100141 67 155 4.0 9.0 0.00 0.03 0.00 82 1012.4
20260504081604 68 251 4.0 7.0 0.00 0.03 0.00 75 1012.3
20260504081542 68 216 3.0 7.0 0.00 0.03 0.00 74 1012.4
20260504080638 68 227 3.0 6.0 0.00 0.03 0.00 75 1012.5
20260504080428 67 193 3.0 6.0 0.00 0.03 0.00 76 1012.5
20260504070347 65 269 2.0 4.0 0.00 0.03 0.00 79 1012.9
20260504070251 65 252 2.0 5.0 0.00 0.03 0.00 79 1012.8
20260504060159 62 316 0.0 0.0 0.00 0.03 0.00 86 1013.0
20260504050608 62 316 0.0 0.0 0.00 0.03 0.00 87 1012.9
20260504050551 62 316 0.0 2.0 0.00 0.03 0.00 87 1013.0
20260504050546 62 316 0.0 2.0 0.00 0.03 0.00 87 1013.0
20260504050431 62 316 0.0 0.0 0.00 0.03 0.00 87 1013.0
20260504045858 62 316 0.0 0.0 0.00 0.03 0.00 87 1012.9
20260504044123 62 328 1.0 2.0 0.00 0.03 0.00 87 1012.9
20260504043606 62 328 1.0 2.0 0.00 0.03 0.00 87 1012.8
20260504043057 62 34 0.0 2.0 0.00 0.03 0.00 87 1012.9
20260504042556 62 331 0.0 1.0 0.00 0.03 0.00 87 1013.0
20260504042148 62 328 0.0 1.0 0.00 0.03 0.00 87 1013.0
20260504041826 62 326 0.0 0.0 0.00 0.03 0.00 87 1013.0
20260504041717 62 326 0.0 0.0 0.00 0.03 0.00 87 1013.1
20260504040556 62 326 0.0 0.0 0.00 0.03 0.00 87 1013.0
20260504040213 62 326 0.0 1.0 0.00 0.03 0.00 86 1013.1
20260504035714 62 326 0.0 1.0 0.00 0.03 0.00 86 1013.1
20260504035124 62 326 0.0 1.0 0.00 0.03 0.00 86 1013.1
20260504034705 62 323 0.0 2.0 0.00 0.03 0.00 86 1013.2
20260504034115 62 323 1.0 2.0 0.00 0.03 0.00 86 1013.2
20260504033659 62 7 1.0 2.0 0.00 0.03 0.00 86 1013.3
20260504033056 62 15 0.0 1.0 0.00 0.03 0.00 86 1013.4
20260504032651 62 340 0.0 1.0 0.00 0.03 0.00 86 1013.5
20260504032056 62 304 0.0 1.0 0.00 0.03 0.00 87 1013.4
20260504031644 62 304 0.0 1.0 0.00 0.03 0.00 87 1013.4
20260504031056 62 304 0.0 2.0 0.00 0.03 0.00 87 1013.5
20260504030638 62 304 0.0 2.0 0.00 0.03 0.00 88 1013.4
20260504030130 62 307 0.0 1.0 0.00 0.03 0.00 88 1013.4
20260504025556 61 51 0.0 0.0 0.00 0.03 0.00 88 1013.4
20260504025444 62 311 0.0 0.0 0.00 0.03 0.00 88 1013.2
20260504025248 61 51 0.0 1.0 0.00 0.03 0.00 88 1013.3
20260504024754 61 51 0.0 1.0 0.00 0.03 0.00 88 1013.2
20260504024255 61 311 0.0 0.0 0.00 0.03 0.00 88 1013.2
20260504023104 62 311 0.0 1.0 0.00 0.03 0.00 87 1013.2
20260504022601 62 311 0.0 1.0 0.00 0.03 0.00 87 1013.3
20260504022057 62 311 0.0 1.0 0.00 0.03 0.00 87 1013.3
20260504021556 62 311 0.0 2.0 0.00 0.03 0.00 87 1013.3
20260504021141 62 302 1.0 2.0 0.00 0.03 0.00 87 1013.3
20260504020735 62 304 0.0 2.0 0.00 0.03 0.00 87 1013.3
20260504020708 62 340 1.0 2.0 0.00 0.03 0.00 87 1013.3
20260504020341 62 305 0.0 1.0 0.00 0.03 0.00 87 1013.4
20260504015129 62 304 0.0 3.0 0.00 0.03 0.00 87 1013.4
20260504014755 62 313 1.0 3.0 0.00 0.03 0.00 87 1013.4
20260504014401 62 345 2.0 4.0 0.00 0.03 0.00 87 1013.6
20260504014208 62 311 0.0 2.0 0.00 0.03 0.00 87 1013.5
20260504013837 62 358 2.0 2.0 0.00 0.03 0.00 87 1013.5
20260504012056 62 356 3.0 4.0 0.00 0.03 0.00 87 1013.5
20260504011656 61 23 2.0 4.0 0.00 0.03 0.00 87 1013.6
20260504011057 62 323 2.0 4.0 0.00 0.03 0.00 87 1013.7
20260504010813 62 8 2.0 5.0 0.00 0.03 0.00 87 1013.7
20260504010721 62 331 2.0 4.0 0.00 0.03 0.00 87 1013.7
20260504010231 61 338 3.0 5.0 0.00 0.03 0.00 87 1013.6
20260504005101 62 334 3.0 5.0 0.00 0.03 0.00 86 1013.7
20260504004555 62 346 3.0 7.0 0.00 0.03 0.00 86 1013.8
20260504004114 62 290 4.0 7.0 0.00 0.03 0.00 86 1013.9
20260504003636 62 325 1.0 2.0 0.00 0.03 0.00 87 1013.9
20260504003229 62 329 2.0 3.0 0.00 0.03 0.00 87 1014.0
20260504003205 62 351 1.0 3.0 0.00 0.03 0.00 87 1014.0
20260504002117 61 339 2.0 3.0 0.00 0.03 0.00 89 1014.0
20260504002056 61 340 2.0 3.0 0.00 0.03 0.00 88 1014.0
20260504001215 61 340 2.0 3.0 0.00 0.03 0.00 89 1014.0
20260504000728 61 346 2.0 5.0 0.00 0.03 0.00 89 1014.0
20260504000401 61 30 3.0 5.0 0.00 0.03 0.00 89 1014.0
20260503235616 61 12 4.0 5.0 0.00 0.03 0.00 89 1014.1
20260503235247 61 32 4.0 5.0 0.00 0.03 0.00 89 1014.1
20260503234751 61 27 2.0 4.0 0.00 0.03 0.00 90 1014.2
20260503233553 61 25 2.0 4.0 0.00 0.03 0.00 90 1014.3
20260503233152 61 4 2.0 4.0 0.00 0.03 0.00 90 1014.3
20260503232556 61 22 3.0 4.0 0.00 0.03 0.00 90 1014.2
20260503232113 61 4 2.0 4.0 0.00 0.03 0.00 90 1014.3
20260503231553 61 346 2.0 4.0 0.00 0.03 0.00 90 1014.4
20260503231053 61 16 2.0 3.0 0.00 0.03 0.00 90 1014.4
20260503230606 61 3 2.0 3.0 0.00 0.03 0.00 90 1014.5
20260503230216 61 6 2.0 3.0 0.00 0.03 0.00 90 1014.5
20260503225841 61 359 2.0 4.0 0.00 0.03 0.00 90 1014.5
20260503225132 61 24 2.0 4.0 0.00 0.03 0.00 90 1014.5
20260503224654 61 5 2.0 4.0 0.00 0.03 0.00 91 1014.6
20260503224649 62 7 2.0 4.0 0.00 0.03 0.00 91 1014.7
20260503224627 61 15 2.0 4.0 0.00 0.03 0.00 90 1014.5
20260503223333 62 37 2.0 4.0 0.00 0.03 0.00 91 1014.7
20260503223144 62 25 1.0 2.0 0.00 0.03 0.00 91 1014.7
20260503222811 62 41 1.0 3.0 0.00 0.03 0.00 91 1014.7
20260503221658 62 40 2.0 4.0 0.00 0.03 0.00 91 1014.7
20260503221116 62 49 3.0 7.0 0.00 0.03 0.00 91 1014.6
20260503221013 62 51 5.0 7.0 0.00 0.03 0.00 91 1014.4
20260503220559 62 61 4.0 7.0 0.00 0.03 0.00 92 1014.5
20260503215645 62 29 3.0 7.0 0.00 0.03 0.03 92 1014.6
20260503215053 62 58 3.0 6.0 0.00 0.03 0.03 92 1014.6
20260503214604 62 50 3.0 4.0 0.00 0.03 0.03 91 1014.6
20260503214053 62 46 3.0 5.0 0.00 0.03 0.03 91 1014.6
20260503213553 62 30 4.0 5.0 0.00 0.03 0.03 91 1014.6
20260503213054 62 15 4.0 5.0 0.00 0.03 0.03 90 1014.7
20260503212632 62 355 2.0 5.0 0.00 0.03 0.03 90 1014.8
20260503212231 62 1 1.0 3.0 0.00 0.03 0.03 91 1015.0
20260503212204 62 351 3.0 3.0 0.00 0.03 0.03 91 1014.9
20260503211057 62 326 0.0 3.0 0.00 0.03 0.03 91 1015.0
20260503210615 62 349 2.0 4.0 0.00 0.03 0.03 91 1014.9
20260503210206 62 25 2.0 4.0 0.01 0.03 0.03 91 1014.9
20260503205611 62 29 1.0 5.0 0.01 0.02 0.03 90 1014.9
20260503205200 62 21 2.0 5.0 0.02 0.02 0.03 90 1014.9
20260503204606 62 3 3.0 5.0 0.02 0.02 0.03 90 1014.9
20260503204155 61 347 4.0 4.0 0.02 0.02 0.03 90 1015.0
20260503203554 61 23 3.0 4.0 0.02 0.02 0.03 90 1015.1
20260503203150 61 348 2.0 4.0 0.02 0.02 0.03 91 1015.0
20260503202557 62 17 2.0 4.0 0.03 0.02 0.03 91 1015.1
20260503202348 62 13 2.0 4.0 0.02 0.02 0.02 89 1015.0
20260503202344 62 20 2.0 5.0 0.03 0.02 0.03 91 1015.1
20260503202340 61 336 2.0 3.0 0.03 0.02 0.02 90 1015.0
20260503202309 62 18 3.0 4.0 0.03 0.02 0.03 91 1015.1
20260503201142 61 11 3.0 5.0 0.03 0.02 0.03 90 1015.0
20260503195553 62 358 2.0 5.0 0.02 0.00 0.02 89 1015.0
20260503195136 62 79 4.0 5.0 0.02 0.00 0.02 89 1014.9
20260503194755 62 56 1.0 5.0 0.01 0.00 0.01 88 1014.9
20260503194750 62 39 2.0 6.0 0.01 0.00 0.01 88 1014.8
20260503194723 62 81 0.0 3.0 0.01 0.00 0.01 88 1014.9
20260503193547 62 61 4.0 9.0 0.00 0.00 0.00 87 1014.7
20260503193318 62 54 3.0 6.0 0.01 0.00 0.01 87 1014.7
20260503192120 62 59 5.0 9.0 0.00 0.00 0.00 86 1014.5
20260503191704 63 58 7.0 9.0 0.00 0.00 0.00 85 1014.3
20260503191115 63 94 6.0 8.0 0.00 0.00 0.00 83 1014.3
20260503190657 63 58 4.0 6.0 0.00 0.00 0.00 83 1014.4
20260503190053 63 4 3.0 4.0 0.00 0.00 0.00 83 1014.6
20260503185651 63 42 3.0 4.0 0.00 0.00 0.00 83 1014.6
20260503185053 63 29 1.0 4.0 0.00 0.00 0.00 83 1014.6
20260503184645 63 32 1.0 6.0 0.00 0.00 0.00 83 1014.6
20260503184057 63 53 3.0 7.0 0.00 0.00 0.00 83 1014.6
20260503183623 63 48 4.0 7.0 0.00 0.00 0.00 83 1014.6
20260503183055 63 72 3.0 5.0 0.00 0.00 0.00 83 1014.6
20260503182554 63 68 4.0 5.0 0.00 0.00 0.00 83 1014.5
20260503182057 63 60 4.0 5.0 0.00 0.00 0.00 83 1014.5
20260503181633 63 358 4.0 6.0 0.00 0.00 0.00 83 1014.5
20260503181053 63 78 4.0 7.0 0.00 0.00 0.00 83 1014.5
20260503180628 63 50 3.0 9.0 0.00 0.00 0.00 84 1014.5
20260503180149 63 57 9.0 12.0 0.00 0.00 0.00 84 1014.3
20260503180130 63 68 7.0 11.0 0.00 0.00 0.00 84 1014.4
20260503175831 63 53 8.0 11.0 0.00 0.00 0.00 84 1014.3
20260503174616 63 63 9.0 12.0 0.00 0.00 0.00 84 1014.2
20260503174208 63 22 8.0 12.0 0.00 0.00 0.00 84 1014.2
20260503173614 63 73 8.0 12.0 0.00 0.00 0.00 84 1014.2
20260503173204 63 39 8.0 14.0 0.00 0.00 0.00 85 1014.2
20260503172553 63 52 8.0 14.0 0.00 0.00 0.00 85 1014.2
20260503172158 63 60 10.0 14.0 0.00 0.00 0.00 85 1014.1
20260503171554 63 79 10.0 14.0 0.00 0.00 0.00 85 1014.2
20260503171351 63 77 8.0 12.0 0.00 0.00 0.00 84 1014.4
20260503171221 63 78 7.0 14.0 0.00 0.00 0.00 85 1014.3
20260503170726 63 70 8.0 14.0 0.00 0.00 0.00 85 1014.3
20260503170146 63 91 9.0 14.0 0.00 0.00 0.00 85 1014.4